{"data":{"norad_id":55149,"intl_designator":"2023-004K","name":"ONEWEB-0570","alt_names":[],"object_type":"PAYLOAD","status":"ACTIVE","operator":null,"country":"UK","launch_date":"2023-01-10","launch_site_code":"AFETR","launch_vehicle":null,"mission":null,"orbit_class":"UNKNOWN","rcs_meters":null,"size_class":null,"mass_kg":null,"dimensions":null,"purposes":["comms"],"wikipedia_slug":null,"has_3d_model":false,"image_url":null,"decayed_at":null,"tle_current":{"epoch":"2026-05-25T01:29:17.516256Z","epoch_age_seconds":80105,"freshness":"FRESH","line1":"1 55149U 23004K   26145.06200829 -.00000032  00000+0 -11282-3 0  9991","line2":"2 55149  87.9158 340.0728 0002018 100.4587 259.6773 13.18687694166649","mean_motion":13.18687694,"eccentricity":0.0002018,"inclination_deg":87.9158,"raan_deg":340.0728,"arg_perigee_deg":100.4587,"mean_anomaly_deg":259.6773,"bstar":-0.00011282,"rev_number":16664,"period_min":109.19947206241,"perigee_km":1188.2094487786,"apogee_km":1191.263842582,"semimajor_km":7567.8736456803,"source":"CELESTRAK","updated_at":"2026-05-25T13:38:22.641137Z"}}}